| time (UTC) | temp F | wind direction | speed MPH | gust MPH | rain 1hr in | rain 24hr in | rain mn in | humidity % | barometer mb |
| 20260906222309 | 81 | 71 | 4.0 | 11.0 | 0.00 | 0.00 | 0.00 | 30 | 1015.1 |
| 20260906221809 | 81 | 58 | 3.0 | 11.0 | 0.00 | 0.00 | 0.00 | 31 | 1015.1 |
| 20260906221307 | 81 | 69 | 4.0 | 10.0 | 0.00 | 0.00 | 0.00 | 30 | 1015.2 |
| 20260906220809 | 81 | 81 | 3.0 | 10.0 | 0.00 | 0.00 | 0.00 | 29 | 1015.2 |
| 20260906220304 | 82 | 145 | 3.0 | 8.0 | 0.00 | 0.00 | 0.00 | 28 | 1015.3 |
| 20260906215805 | 82 | 49 | 4.0 | 11.0 | 0.00 | 0.00 | 0.00 | 27 | 1015.4 |
| 20260906215306 | 82 | 57 | 4.0 | 11.0 | 0.00 | 0.00 | 0.00 | 27 | 1015.5 |
| 20260906214808 | 82 | 74 | 4.0 | 11.0 | 0.00 | 0.00 | 0.00 | 26 | 1015.6 |
| 20260906214305 | 82 | 94 | 4.0 | 9.0 | 0.00 | 0.00 | 0.00 | 28 | 1015.5 |
| 20260906213805 | 82 | 38 | 4.0 | 9.0 | 0.00 | 0.00 | 0.00 | 29 | 1015.5 |
| 20260906213306 | 82 | 51 | 4.0 | 10.0 | 0.00 | 0.00 | 0.00 | 26 | 1015.5 |
| 20260906212807 | 83 | 32 | 4.0 | 11.0 | 0.00 | 0.00 | 0.00 | 25 | 1015.6 |
| 20260906212301 | 83 | 295 | 4.0 | 11.0 | 0.00 | 0.00 | 0.00 | 24 | 1015.6 |
| 20260906211756 | 82 | 128 | 5.0 | 11.0 | 0.00 | 0.00 | 0.00 | 26 | 1015.7 |
| 20260906211249 | 82 | 78 | 4.0 | 11.0 | 0.00 | 0.00 | 0.00 | 22 | 1015.6 |
| 20260906210237 | 83 | 79 | 5.0 | 14.0 | 0.00 | 0.00 | 0.00 | 23 | 1015.7 |
| 20260906205732 | 83 | 48 | 5.0 | 14.0 | 0.00 | 0.00 | 0.00 | 25 | 1015.8 |
| 20260906205225 | 83 | 65 | 4.0 | 13.0 | 0.00 | 0.00 | 0.00 | 24 | 1015.9 |
| 20260906204719 | 83 | 118 | 3.0 | 10.0 | 0.00 | 0.00 | 0.00 | 26 | 1015.8 |
| 20260906204214 | 83 | 82 | 4.0 | 12.0 | 0.00 | 0.00 | 0.00 | 24 | 1015.9 |
| 20260906203708 | 83 | 26 | 4.0 | 12.0 | 0.00 | 0.00 | 0.00 | 24 | 1015.8 |
| 20260906203202 | 84 | 53 | 3.0 | 10.0 | 0.00 | 0.00 | 0.00 | 24 | 1015.7 |
| 20260906202656 | 84 | 125 | 4.0 | 10.0 | 0.00 | 0.00 | 0.00 | 25 | 1015.7 |
| 20260906202151 | 84 | 95 | 4.0 | 11.0 | 0.00 | 0.00 | 0.00 | 27 | 1015.7 |
| 20260906201643 | 83 | 110 | 5.0 | 11.0 | 0.00 | 0.00 | 0.00 | 25 | 1015.8 |
| 20260906201139 | 83 | 46 | 5.0 | 11.0 | 0.00 | 0.00 | 0.00 | 26 | 1015.8 |
| 20260906200632 | 83 | 63 | 4.0 | 10.0 | 0.00 | 0.00 | 0.00 | 24 | 1015.7 |
| 20260906200127 | 83 | 77 | 3.0 | 10.0 | 0.00 | 0.00 | 0.00 | 25 | 1015.8 |
| 20260906195620 | 84 | 107 | 4.0 | 12.0 | 0.00 | 0.00 | 0.00 | 24 | 1015.9 |
| 20260906195114 | 83 | 121 | 6.0 | 12.0 | 0.00 | 0.00 | 0.00 | 29 | 1015.8 |
| 20260906194614 | 83 | 31 | 6.0 | 11.0 | 0.00 | 0.00 | 0.00 | 29 | 1015.9 |
| 20260906194114 | 83 | 21 | 5.0 | 10.0 | 0.00 | 0.00 | 0.00 | 28 | 1016.1 |
| 20260906193614 | 83 | 51 | 4.0 | 14.0 | 0.00 | 0.00 | 0.00 | 27 | 1016.1 |
| 20260906193112 | 83 | 36 | 5.0 | 14.0 | 0.00 | 0.00 | 0.00 | 28 | 1016.1 |
| 20260906192612 | 83 | 54 | 5.0 | 14.0 | 0.00 | 0.00 | 0.00 | 27 | 1016.1 |
| 20260906192113 | 84 | 74 | 3.0 | 14.0 | 0.00 | 0.00 | 0.00 | 32 | 1016.2 |
| 20260906191111 | 83 | 17 | 5.0 | 12.0 | 0.00 | 0.00 | 0.00 | 33 | 1016.2 |
| 20260906190112 | 82 | 69 | 6.0 | 13.0 | 0.00 | 0.00 | 0.00 | 30 | 1016.2 |
| 20260906185612 | 83 | 5 | 5.0 | 13.0 | 0.00 | 0.00 | 0.00 | 34 | 1016.2 |
| 20260906185111 | 83 | 55 | 5.0 | 13.0 | 0.00 | 0.00 | 0.00 | 34 | 1016.2 |
| 20260906184112 | 82 | 68 | 5.0 | 13.0 | 0.00 | 0.00 | 0.00 | 31 | 1016.3 |
| 20260906183613 | 82 | 97 | 5.0 | 15.0 | 0.00 | 0.00 | 0.00 | 33 | 1016.2 |
| 20260906182609 | 82 | 42 | 5.0 | 11.0 | 0.00 | 0.00 | 0.00 | 34 | 1016.3 |
| 20260906181607 | 82 | 40 | 5.0 | 12.0 | 0.00 | 0.00 | 0.00 | 37 | 1016.5 |
| 20260906181106 | 81 | 24 | 5.0 | 17.0 | 0.00 | 0.00 | 0.00 | 38 | 1016.5 |
| 20260906180606 | 81 | 63 | 5.0 | 17.0 | 0.00 | 0.00 | 0.00 | 39 | 1016.6 |
| 20260906180107 | 81 | 82 | 4.0 | 12.0 | 0.00 | 0.00 | 0.00 | 40 | 1016.6 |
| 20260906175607 | 81 | 46 | 5.0 | 12.0 | 0.00 | 0.00 | 0.00 | 39 | 1016.6 |
| 20260906173606 | 80 | 71 | 6.0 | 13.0 | 0.00 | 0.00 | 0.00 | 41 | 1016.8 |
| 20260906173104 | 80 | 44 | 7.0 | 15.0 | 0.00 | 0.00 | 0.00 | 40 | 1016.9 |
| 20260906172603 | 80 | 338 | 6.0 | 15.0 | 0.00 | 0.00 | 0.00 | 41 | 1016.9 |
| 20260906171605 | 80 | 28 | 7.0 | 13.0 | 0.00 | 0.00 | 0.00 | 45 | 1017.1 |
| 20260906171100 | 79 | 14 | 6.0 | 13.0 | 0.00 | 0.00 | 0.00 | 45 | 1017.2 |
| 20260906170559 | 79 | 57 | 5.0 | 16.0 | 0.00 | 0.00 | 0.00 | 46 | 1017.3 |
| 20260906170100 | 79 | 27 | 5.0 | 16.0 | 0.00 | 0.00 | 0.00 | 46 | 1017.3 |
| 20260906165601 | 79 | 73 | 6.0 | 12.0 | 0.00 | 0.00 | 0.00 | 48 | 1017.3 |
| 20260906165101 | 79 | 144 | 6.0 | 12.0 | 0.00 | 0.00 | 0.00 | 49 | 1017.2 |
| 20260906164059 | 79 | 66 | 5.0 | 11.0 | 0.00 | 0.00 | 0.00 | 50 | 1017.2 |
| 20260906163601 | 79 | 83 | 5.0 | 10.0 | 0.00 | 0.00 | 0.00 | 51 | 1017.2 |
| 20260906163103 | 78 | 40 | 5.0 | 11.0 | 0.00 | 0.00 | 0.00 | 50 | 1017.3 |
| 20260906162603 | 78 | 67 | 4.0 | 11.0 | 0.00 | 0.00 | 0.00 | 50 | 1017.4 |
| 20260906162100 | 78 | 60 | 4.0 | 11.0 | 0.00 | 0.00 | 0.00 | 49 | 1017.4 |
| 20260906161601 | 78 | 132 | 4.0 | 11.0 | 0.00 | 0.00 | 0.00 | 51 | 1017.4 |
| 20260906161056 | 79 | 30 | 4.0 | 12.0 | 0.00 | 0.00 | 0.00 | 50 | 1017.3 |
| 20260906160555 | 78 | 107 | 4.0 | 12.0 | 0.00 | 0.00 | 0.00 | 49 | 1017.4 |
| 20260906154556 | 78 | 57 | 5.0 | 10.0 | 0.00 | 0.00 | 0.00 | 53 | 1017.4 |
| 20260906154056 | 77 | 126 | 5.0 | 13.0 | 0.00 | 0.00 | 0.00 | 54 | 1017.4 |
| 20260906153555 | 77 | 72 | 4.0 | 13.0 | 0.00 | 0.00 | 0.00 | 51 | 1017.5 |
| 20260906153057 | 76 | 91 | 4.0 | 11.0 | 0.00 | 0.00 | 0.00 | 52 | 1017.3 |
| 20260906152552 | 77 | 43 | 3.0 | 11.0 | 0.00 | 0.00 | 0.00 | 52 | 1017.3 |
| 20260906152052 | 78 | 86 | 3.0 | 11.0 | 0.00 | 0.00 | 0.00 | 53 | 1017.3 |
| 20260906151051 | 76 | 101 | 3.0 | 10.0 | 0.00 | 0.00 | 0.00 | 53 | 1017.1 |
| 20260906150553 | 77 | 44 | 2.0 | 10.0 | 0.00 | 0.00 | 0.00 | 55 | 1017.1 |
| 20260906150054 | 76 | 136 | 3.0 | 8.0 | 0.00 | 0.00 | 0.00 | 55 | 1017.0 |
| 20260906145555 | 76 | 114 | 3.0 | 9.0 | 0.00 | 0.00 | 0.00 | 56 | 1017.0 |
| 20260906145054 | 75 | 89 | 3.0 | 9.0 | 0.00 | 0.00 | 0.00 | 56 | 1016.9 |
| 20260906144556 | 76 | 129 | 2.0 | 7.0 | 0.00 | 0.00 | 0.00 | 55 | 1016.9 |
| 20260906143550 | 75 | 92 | 3.0 | 9.0 | 0.00 | 0.00 | 0.00 | 58 | 1016.8 |
| 20260906143049 | 75 | 71 | 3.0 | 9.0 | 0.00 | 0.00 | 0.00 | 60 | 1016.7 |
| 20260906142549 | 74 | 119 | 3.0 | 8.0 | 0.00 | 0.00 | 0.00 | 61 | 1016.8 |
| 20260906142051 | 74 | 113 | 3.0 | 8.0 | 0.00 | 0.00 | 0.00 | 62 | 1017.0 |
| 20260906141549 | 73 | 61 | 2.0 | 7.0 | 0.00 | 0.00 | 0.00 | 64 | 1017.0 |
| 20260906141050 | 73 | 169 | 2.0 | 7.0 | 0.00 | 0.00 | 0.00 | 66 | 1016.9 |
| 20260906140547 | 73 | 167 | 2.0 | 8.0 | 0.00 | 0.00 | 0.00 | 68 | 1016.9 |
| 20260906135545 | 72 | 55 | 2.0 | 7.0 | 0.00 | 0.00 | 0.00 | 71 | 1017.0 |
| 20260906135045 | 71 | 68 | 3.0 | 9.0 | 0.00 | 0.00 | 0.00 | 72 | 1017.1 |
| 20260906134545 | 71 | 113 | 3.0 | 9.0 | 0.00 | 0.00 | 0.00 | 73 | 1017.1 |
| 20260906133543 | 70 | 69 | 3.0 | 10.0 | 0.00 | 0.00 | 0.00 | 79 | 1016.9 |
| 20260906132045 | 70 | 122 | 3.0 | 10.0 | 0.00 | 0.00 | 0.00 | 81 | 1017.0 |
| 20260906131545 | 70 | 68 | 2.0 | 10.0 | 0.00 | 0.00 | 0.00 | 81 | 1017.0 |
| 20260906131043 | 70 | 146 | 2.0 | 9.0 | 0.00 | 0.00 | 0.00 | 81 | 1016.8 |
| 20260906130044 | 69 | 55 | 1.0 | 5.0 | 0.00 | 0.00 | 0.00 | 81 | 1016.7 |
| 20260906125541 | 69 | 57 | 2.0 | 9.0 | 0.00 | 0.00 | 0.00 | 81 | 1016.7 |
| 20260906125042 | 69 | 109 | 1.0 | 9.0 | 0.00 | 0.00 | 0.00 | 81 | 1016.7 |
| 20260906124540 | 68 | 57 | 2.0 | 8.0 | 0.00 | 0.00 | 0.00 | 81 | 1016.6 |
| 20260906123540 | 68 | 69 | 1.0 | 6.0 | 0.00 | 0.00 | 0.00 | 80 | 1016.5 |
| 20260906123043 | 67 | 109 | 1.0 | 6.0 | 0.00 | 0.00 | 0.00 | 80 | 1016.5 |
| 20260906122535 | 67 | 63 | 1.0 | 3.0 | 0.00 | 0.00 | 0.00 | 80 | 1016.6 |
| 20260906122037 | 67 | 93 | 1.0 | 3.0 | 0.00 | 0.00 | 0.00 | 79 | 1016.5 |
| 20260906121535 | 67 | 93 | 1.0 | 3.0 | 0.00 | 0.00 | 0.00 | 79 | 1016.4 |
| 20260906121036 | 67 | 71 | 0.0 | 3.0 | 0.00 | 0.00 | 0.00 | 79 | 1016.4 |
| 20260906120535 | 67 | 71 | 0.0 | 1.0 | 0.00 | 0.00 | 0.00 | 79 | 1016.3 |
| 20260906120036 | 67 | 71 | 0.0 | 1.0 | 0.00 | 0.00 | 0.00 | 79 | 1016.2 |
| 20260906115535 | 67 | 71 | 0.0 | 2.0 | 0.00 | 0.00 | 0.00 | 79 | 1015.9 |
| 20260906115036 | 67 | 71 | 1.0 | 3.0 | 0.00 | 0.00 | 0.00 | 78 | 1015.8 |
| 20260906114537 | 67 | 63 | 1.0 | 3.0 | 0.00 | 0.00 | 0.00 | 78 | 1015.8 |
| 20260906114033 | 67 | 63 | 1.0 | 3.0 | 0.00 | 0.00 | 0.00 | 78 | 1015.7 |
| 20260906113531 | 67 | 63 | 1.0 | 3.0 | 0.00 | 0.00 | 0.00 | 78 | 1015.6 |
| 20260906113033 | 67 | 63 | 1.0 | 4.0 | 0.00 | 0.00 | 0.00 | 78 | 1015.5 |
| 20260906112533 | 67 | 64 | 1.0 | 4.0 | 0.00 | 0.00 | 0.00 | 78 | 1015.5 |
| 20260906112031 | 67 | 82 | 1.0 | 3.0 | 0.00 | 0.00 | 0.00 | 78 | 1015.3 |
| 20260906111533 | 67 | 66 | 0.0 | 2.0 | 0.00 | 0.00 | 0.00 | 78 | 1015.2 |
| 20260906111032 | 67 | 67 | 0.0 | 2.0 | 0.00 | 0.00 | 0.00 | 78 | 1015.1 |
| 20260906110033 | 67 | 67 | 0.0 | 1.0 | 0.00 | 0.00 | 0.00 | 78 | 1015.2 |
| 20260906105532 | 67 | 67 | 0.0 | 2.0 | 0.00 | 0.00 | 0.00 | 77 | 1015.2 |
| 20260906105033 | 67 | 67 | 0.0 | 2.0 | 0.00 | 0.00 | 0.00 | 77 | 1015.2 |
| 20260906104533 | 67 | 67 | 0.0 | 2.0 | 0.00 | 0.00 | 0.00 | 77 | 1015.1 |
| 20260906103530 | 67 | 67 | 0.0 | 2.0 | 0.00 | 0.00 | 0.00 | 77 | 1015.0 |
| 20260906102531 | 68 | 67 | 1.0 | 3.0 | 0.00 | 0.00 | 0.00 | 77 | 1014.9 |
| 20260906102027 | 68 | 67 | 1.0 | 3.0 | 0.00 | 0.00 | 0.00 | 77 | 1014.8 |
| 20260906100527 | 68 | 58 | 0.0 | 1.0 | 0.00 | 0.00 | 0.00 | 77 | 1014.7 |
| 20260906095516 | 68 | 58 | 0.0 | 2.0 | 0.00 | 0.00 | 0.00 | 77 | 1014.6 |
| 20260906094504 | 69 | 59 | 0.0 | 2.0 | 0.00 | 0.00 | 0.00 | 77 | 1014.6 |
| 20260906093958 | 69 | 59 | 1.0 | 4.0 | 0.00 | 0.00 | 0.00 | 77 | 1014.6 |
| 20260906093452 | 69 | 63 | 1.0 | 4.0 | 0.00 | 0.00 | 0.00 | 77 | 1014.6 |
| 20260906092451 | 69 | 84 | 1.0 | 4.0 | 0.00 | 0.00 | 0.00 | 77 | 1014.5 |
| 20260906091951 | 69 | 103 | 1.0 | 4.0 | 0.00 | 0.00 | 0.00 | 77 | 1014.6 |
| 20260906091453 | 69 | 87 | 1.0 | 4.0 | 0.00 | 0.00 | 0.00 | 77 | 1014.6 |
| 20260906090950 | 69 | 51 | 0.0 | 3.0 | 0.00 | 0.00 | 0.00 | 77 | 1014.7 |
| 20260906090450 | 69 | 31 | 0.0 | 3.0 | 0.00 | 0.00 | 0.00 | 77 | 1014.6 |
| 20260906085952 | 70 | 31 | 1.0 | 4.0 | 0.00 | 0.00 | 0.00 | 77 | 1014.6 |
| 20260906085447 | 70 | 28 | 2.0 | 4.0 | 0.00 | 0.00 | 0.00 | 77 | 1014.6 |
| 20260906084948 | 70 | 59 | 2.0 | 4.0 | 0.00 | 0.00 | 0.00 | 77 | 1014.5 |
| 20260906084449 | 70 | 53 | 2.0 | 4.0 | 0.00 | 0.00 | 0.00 | 77 | 1014.5 |
| 20260906083947 | 70 | 94 | 1.0 | 4.0 | 0.00 | 0.00 | 0.00 | 77 | 1014.5 |
| 20260906083448 | 70 | 86 | 1.0 | 3.0 | 0.00 | 0.00 | 0.00 | 77 | 1014.5 |
| 20260906082946 | 70 | 9 | 1.0 | 4.0 | 0.00 | 0.00 | 0.00 | 76 | 1014.5 |
| 20260906081945 | 70 | 60 | 2.0 | 5.0 | 0.00 | 0.00 | 0.00 | 76 | 1014.3 |
| 20260906081444 | 70 | 67 | 2.0 | 5.0 | 0.00 | 0.00 | 0.00 | 76 | 1014.3 |
| 20260906080939 | 70 | 9 | 2.0 | 5.0 | 0.00 | 0.00 | 0.00 | 76 | 1014.4 |
| 20260906075926 | 70 | 61 | 1.0 | 3.0 | 0.00 | 0.00 | 0.00 | 75 | 1014.5 |
| 20260906075420 | 70 | 59 | 1.0 | 3.0 | 0.00 | 0.00 | 0.00 | 75 | 1014.5 |
| 20260906074914 | 70 | 92 | 1.0 | 4.0 | 0.00 | 0.00 | 0.00 | 75 | 1014.5 |
| 20260906074410 | 70 | 42 | 2.0 | 5.0 | 0.00 | 0.00 | 0.00 | 75 | 1014.4 |
| 20260906073902 | 71 | 54 | 2.0 | 5.0 | 0.00 | 0.00 | 0.00 | 75 | 1014.4 |
| 20260906073356 | 71 | 38 | 2.0 | 4.0 | 0.00 | 0.00 | 0.00 | 75 | 1014.3 |
| 20260906072850 | 71 | 82 | 1.0 | 4.0 | 0.00 | 0.00 | 0.00 | 75 | 1014.4 |
| 20260906072343 | 71 | 0 | 1.0 | 4.0 | 0.00 | 0.00 | 0.00 | 74 | 1014.4 |
| 20260906071840 | 71 | 67 | 2.0 | 4.0 | 0.00 | 0.00 | 0.00 | 74 | 1014.4 |
| 20260906071332 | 71 | 41 | 1.0 | 5.0 | 0.00 | 0.00 | 0.00 | 74 | 1014.4 |
| 20260906070826 | 71 | 31 | 1.0 | 5.0 | 0.00 | 0.00 | 0.00 | 74 | 1014.4 |
| 20260906065814 | 71 | 57 | 1.0 | 4.0 | 0.00 | 0.00 | 0.00 | 73 | 1014.4 |
| 20260906065310 | 71 | 38 | 1.0 | 4.0 | 0.00 | 0.00 | 0.00 | 73 | 1014.4 |
| 20260906064801 | 71 | 34 | 1.0 | 4.0 | 0.00 | 0.00 | 0.00 | 73 | 1014.4 |
| 20260906064256 | 71 | 12 | 0.0 | 3.0 | 0.00 | 0.00 | 0.00 | 73 | 1014.5 |
| 20260906063751 | 71 | 350 | 0.0 | 3.0 | 0.00 | 0.00 | 0.00 | 73 | 1014.6 |
| 20260906063250 | 71 | 35 | 1.0 | 4.0 | 0.00 | 0.00 | 0.00 | 73 | 1014.6 |
| 20260906062747 | 71 | 355 | 2.0 | 5.0 | 0.00 | 0.00 | 0.00 | 72 | 1014.6 |
| 20260906062245 | 71 | 32 | 2.0 | 5.0 | 0.00 | 0.00 | 0.00 | 72 | 1014.5 |
| 20260906061745 | 72 | 40 | 2.0 | 4.0 | 0.00 | 0.00 | 0.00 | 72 | 1014.4 |
| 20260906061247 | 72 | 53 | 2.0 | 4.0 | 0.00 | 0.00 | 0.00 | 72 | 1014.5 |
| 20260906060747 | 72 | 80 | 1.0 | 4.0 | 0.00 | 0.00 | 0.00 | 72 | 1014.6 |
| 20260906060250 | 72 | 49 | 1.0 | 3.0 | 0.00 | 0.00 | 0.00 | 72 | 1014.5 |
| 20260906055247 | 72 | 43 | 1.0 | 4.0 | 0.00 | 0.00 | 0.00 | 72 | 1014.2 |
| 20260906054744 | 72 | 50 | 1.0 | 3.0 | 0.00 | 0.00 | 0.00 | 72 | 1014.2 |
| 20260906054243 | 72 | 51 | 1.0 | 3.0 | 0.00 | 0.00 | 0.00 | 72 | 1014.2 |
| 20260906053241 | 72 | 41 | 1.0 | 5.0 | 0.00 | 0.00 | 0.00 | 72 | 1014.0 |
| 20260906052743 | 72 | 36 | 2.0 | 5.0 | 0.00 | 0.00 | 0.00 | 71 | 1013.9 |
| 20260906052242 | 72 | 26 | 2.0 | 5.0 | 0.00 | 0.00 | 0.00 | 71 | 1014.0 |
| 20260906051742 | 72 | 36 | 2.0 | 5.0 | 0.00 | 0.00 | 0.00 | 71 | 1014.0 |
| 20260906050729 | 72 | 56 | 3.0 | 9.0 | 0.00 | 0.00 | 0.00 | 71 | 1013.8 |
| 20260906050224 | 72 | 51 | 2.0 | 9.0 | 0.00 | 0.00 | 0.00 | 71 | 1013.8 |
| 20260906045718 | 72 | 49 | 1.0 | 5.0 | 0.00 | 0.00 | 0.00 | 71 | 1013.7 |
| 20260906045212 | 72 | 58 | 2.0 | 5.0 | 0.00 | 0.00 | 0.00 | 71 | 1013.8 |
| 20260906044705 | 72 | 38 | 2.0 | 6.0 | 0.00 | 0.00 | 0.00 | 71 | 1013.8 |
| 20260906044159 | 72 | 65 | 2.0 | 6.0 | 0.00 | 0.00 | 0.00 | 71 | 1013.8 |
| 20260906043652 | 72 | 344 | 2.0 | 5.0 | 0.00 | 0.00 | 0.00 | 71 | 1013.8 |
| 20260906043147 | 72 | 40 | 3.0 | 6.0 | 0.00 | 0.00 | 0.00 | 71 | 1013.9 |
| 20260906042641 | 72 | 19 | 2.0 | 6.0 | 0.00 | 0.00 | 0.00 | 71 | 1013.8 |
| 20260906042135 | 72 | 46 | 2.0 | 8.0 | 0.00 | 0.00 | 0.00 | 71 | 1013.7 |
| 20260906041628 | 72 | 23 | 2.0 | 8.0 | 0.00 | 0.00 | 0.00 | 71 | 1013.6 |
| 20260906041125 | 72 | 36 | 2.0 | 7.0 | 0.00 | 0.00 | 0.00 | 71 | 1013.6 |
| 20260906040617 | 72 | 42 | 2.0 | 6.0 | 0.00 | 0.00 | 0.00 | 71 | 1013.7 |
| 20260906040112 | 72 | 84 | 2.0 | 6.0 | 0.00 | 0.00 | 0.00 | 71 | 1013.7 |
| 20260906035604 | 72 | 44 | 2.0 | 5.0 | 0.00 | 0.00 | 0.00 | 71 | 1013.6 |
| 20260906035101 | 72 | 25 | 2.0 | 6.0 | 0.00 | 0.00 | 0.00 | 71 | 1013.6 |
| 20260906034553 | 72 | 42 | 2.0 | 6.0 | 0.00 | 0.00 | 0.00 | 71 | 1013.7 |
| 20260906034048 | 72 | 42 | 3.0 | 7.0 | 0.00 | 0.00 | 0.00 | 71 | 1013.7 |
| 20260906033035 | 72 | 66 | 3.0 | 10.0 | 0.00 | 0.00 | 0.00 | 71 | 1013.6 |
| 20260906032529 | 72 | 87 | 3.0 | 11.0 | 0.00 | 0.00 | 0.00 | 71 | 1013.5 |
| 20260906032023 | 72 | 59 | 4.0 | 11.0 | 0.00 | 0.00 | 0.00 | 71 | 1013.5 |
| 20260906030505 | 72 | 19 | 3.0 | 9.0 | 0.00 | 0.00 | 0.00 | 70 | 1013.6 |
| 20260906030000 | 72 | 44 | 3.0 | 9.0 | 0.00 | 0.00 | 0.00 | 70 | 1013.6 |
| 20260906025453 | 72 | 51 | 3.0 | 9.0 | 0.00 | 0.00 | 0.00 | 70 | 1013.5 |
| 20260906024946 | 72 | 51 | 3.0 | 8.0 | 0.00 | 0.00 | 0.00 | 70 | 1013.4 |
| 20260906024441 | 72 | 59 | 2.0 | 5.0 | 0.00 | 0.00 | 0.00 | 70 | 1013.5 |
| 20260906023429 | 72 | 47 | 1.0 | 7.0 | 0.00 | 0.00 | 0.00 | 70 | 1013.4 |
| 20260906022923 | 72 | 40 | 1.0 | 5.0 | 0.00 | 0.00 | 0.00 | 70 | 1013.5 |
| 20260906021912 | 72 | 25 | 1.0 | 8.0 | 0.00 | 0.00 | 0.00 | 69 | 1013.4 |
| 20260906020353 | 73 | 36 | 2.0 | 8.0 | 0.00 | 0.00 | 0.00 | 69 | 1013.4 |
| 20260906015847 | 73 | 28 | 2.0 | 8.0 | 0.00 | 0.00 | 0.00 | 69 | 1013.3 |
| 20260906015340 | 73 | 26 | 2.0 | 7.0 | 0.00 | 0.00 | 0.00 | 69 | 1013.3 |
| 20260906014329 | 73 | 355 | 2.0 | 6.0 | 0.00 | 0.00 | 0.00 | 68 | 1013.3 |
| 20260906013316 | 73 | 46 | 2.0 | 8.0 | 0.00 | 0.00 | 0.00 | 68 | 1013.1 |
| 20260906012306 | 74 | 355 | 2.0 | 7.0 | 0.00 | 0.00 | 0.00 | 68 | 1013.0 |
| 20260906011759 | 74 | 316 | 2.0 | 6.0 | 0.00 | 0.00 | 0.00 | 67 | 1013.0 |
| 20260906011253 | 74 | 47 | 2.0 | 9.0 | 0.00 | 0.00 | 0.00 | 67 | 1012.9 |
| 20260906010747 | 74 | 20 | 3.0 | 9.0 | 0.00 | 0.00 | 0.00 | 67 | 1012.9 |
| 20260906010241 | 74 | 67 | 3.0 | 8.0 | 0.00 | 0.00 | 0.00 | 67 | 1012.8 |
| 20260906005228 | 75 | 54 | 4.0 | 12.0 | 0.00 | 0.00 | 0.00 | 66 | 1012.5 |
| 20260906004725 | 75 | 44 | 4.0 | 12.0 | 0.00 | 0.00 | 0.00 | 66 | 1012.5 |
| 20260906004217 | 75 | 33 | 3.0 | 10.0 | 0.00 | 0.00 | 0.00 | 66 | 1012.5 |
| 20260906003713 | 76 | 326 | 3.0 | 9.0 | 0.00 | 0.00 | 0.00 | 65 | 1012.6 |
| 20260906003204 | 76 | 16 | 3.0 | 11.0 | 0.00 | 0.00 | 0.00 | 65 | 1012.6 |
| 20260906002700 | 76 | 349 | 3.0 | 11.0 | 0.00 | 0.00 | 0.00 | 64 | 1012.7 |
| 20260906002153 | 77 | 33 | 4.0 | 11.0 | 0.00 | 0.00 | 0.00 | 64 | 1012.5 |
| 20260906001647 | 77 | 48 | 5.0 | 14.0 | 0.00 | 0.00 | 0.00 | 63 | 1012.5 |
| 20260906001141 | 78 | 32 | 4.0 | 15.0 | 0.00 | 0.00 | 0.00 | 63 | 1012.5 |
| 20260906000636 | 78 | 32 | 4.0 | 15.0 | 0.00 | 0.00 | 0.00 | 63 | 1012.5 |
| 20260906000129 | 78 | 59 | 4.0 | 12.0 | 0.00 | 0.00 | 0.00 | 62 | 1012.6 |
| 20260905235117 | 79 | 58 | 6.0 | 16.0 | 0.00 | 0.00 | 0.00 | 62 | 1012.4 |
| 20260905234613 | 80 | 5 | 6.0 | 16.0 | 0.00 | 0.00 | 0.00 | 61 | 1012.3 |
| 20260905234105 | 80 | 39 | 6.0 | 16.0 | 0.00 | 0.00 | 0.00 | 61 | 1012.1 |
| 20260905233601 | 81 | 40 | 6.0 | 12.0 | 0.00 | 0.00 | 0.00 | 60 | 1012.2 |
| 20260905232547 | 81 | 33 | 7.0 | 13.0 | 0.00 | 0.00 | 0.00 | 59 | 1012.2 |
| 20260905232041 | 82 | 26 | 6.0 | 13.0 | 0.00 | 0.00 | 0.00 | 59 | 1012.1 |
| 20260905231535 | 82 | 28 | 5.0 | 13.0 | 0.00 | 0.00 | 0.00 | 58 | 1011.9 |
| 20260905231029 | 83 | 51 | 5.0 | 13.0 | 0.00 | 0.00 | 0.00 | 58 | 1011.8 |
| 20260905230525 | 83 | 42 | 5.0 | 13.0 | 0.00 | 0.00 | 0.00 | 58 | 1011.8 |
| 20260905230017 | 83 | 28 | 5.0 | 13.0 | 0.00 | 0.00 | 0.00 | 57 | 1011.7 |
| 20260905225516 | 83 | 34 | 6.0 | 13.0 | 0.00 | 0.00 | 0.00 | 56 | 1011.6 |
| 20260905225005 | 84 | 19 | 6.0 | 14.0 | 0.00 | 0.00 | 0.00 | 56 | 1011.6 |
| 20260905224458 | 84 | 87 | 6.0 | 14.0 | 0.00 | 0.00 | 0.00 | 56 | 1011.7 |
| 20260905223955 | 84 | 41 | 7.0 | 16.0 | 0.00 | 0.00 | 0.00 | 56 | 1011.6 |
| 20260905223446 | 85 | 86 | 6.0 | 16.0 | 0.00 | 0.00 | 0.00 | 55 | 1011.6 |
| 20260905222435 | 85 | 56 | 7.0 | 13.0 | 0.00 | 0.00 | 0.00 | 55 | 1011.6 |